User: anonymous   Login
Location: Unspecified
(0.0000°N, 0.0000°E)
Time: 10:34:27
(UTC+00:00)
Language:

UFO F6 - Orbit

View from above orbital plane
View from above orbital plane
View from above satellite
View from above satellite

Ground track
Ground track

The orbit data is extracted from the following two-line orbital elements,

1 23696U 95057A   18181.59807159 0.00000000  00000-0  00000-0 0    08
2 23696   9.3803  27.5746 0007327 208.6802 151.2915  0.98764254    06
Epoch (UTC): 30 June 2018 14:21:13
Eccentricity: 0.0007327
inclination: 9.3803°
perigee height: 36183 km
apogee height: 36245 km
right ascension of ascending node: 27.5746°
argument of perigee: 208.6802°
revolutions per day: 0.98764254
mean anomaly at epoch: 151.2915°
orbit number at epoch: 0

The dashed part of the orbit path shows where the satellite is in the earth's shadow,  

DLR